Home   Weather   Santa Clarita   Past weeks

Flag for USA Past Weather in Santa Clarita, California, USA — Yesterday and Last 2 Weeks

Now
54 °F

Sunny.


Feels Like: 54 °F
Forecast: 42 / 58 °F
Wind: No wind

Location: Van Nuys Airport

Current Time: Feb 22, 2017 at 9:44:45 am

Latest Report: Feb 22, 2017 at 8:51 am


Visibility: 10 mi

Pressure: 30.12 "Hg

Humidity: 83%

Dew Point: 49 °F

Location of Santa ClaritaLocation

Past Weather in Santa Clarita — Graph

°F

Santa Clarita Temperature Yesterday

Maximum temperature yesterday: 63 °F (at 1:51 pm)
Minimum temperature yesterday: 53 °F (at 11:51 pm)
Average temperature yesterday: 57 °F

High & Low Weather Summary for the Past Weeks

 TemperatureHumidityPressure
High79 °F (Feb 9, 1:51 pm)100% (Feb 7, 7:51 am)30.33 "Hg (Feb 7, 7:51 am)
Low46 °F (Feb 22, 6:51 am)16% (Feb 15, 11:51 am)29.40 "Hg (Feb 17, 3:51 pm)
Average58 °F80%29.99 "Hg
* Reported Feb 7 7:51 am — Feb 22 7:51 am, Santa Clarita, Weather by CustomWeather, © 2017

Note: Actual official high and low records may vary slightly from our data, if they occured in-between our weather recording intervals... More about our weather records

Advertising

Santa Clarita Weather History for the Previous 24 Hours

Scroll right to see more
 ConditionsComfort  
Time TempWeatherWind HumidityBarometerVisibility
7:51 am
Wed, Feb 22
50 °FSunny.No wind96%30.13 "Hg10 mi
6:51 am46 °FPassing clouds.3 mph100%30.12 "Hg9 mi
5:51 am47 °FPassing clouds.No wind97%30.12 "Hg9 mi
4:51 am47 °FClear.5 mph97%30.13 "Hg10 mi
3:51 am50 °FClear.5 mph96%30.13 "Hg10 mi
2:51 am50 °FClear.No wind96%30.13 "Hg10 mi
1:51 am52 °FClear.3 mph97%30.16 "Hg10 mi
12:51 am52 °FClear.No wind97%30.18 "Hg10 mi
11:51 pm
Tue, Feb 21
53 °FClear.5 mph96%30.20 "Hg10 mi
10:51 pm54 °FClear.3 mph97%30.21 "Hg10 mi
9:51 pm54 °FClear.No wind93%30.22 "Hg10 mi
8:58 pm55 °FOvercast.3 mph93%30.23 "Hg10 mi
7:51 pm56 °FPassing clouds.No wind87%30.22 "Hg10 mi
7:43 pm56 °FMostly cloudy.No wind87%30.23 "Hg10 mi
6:51 pm56 °FPassing clouds.No wind87%30.22 "Hg10 mi
5:51 pm56 °FOvercast.5 mph93%30.22 "Hg10 mi
5:23 pm56 °FLight rain. Fog.No wind93%30.23 "Hg3 mi
3:51 pm63 °FMostly cloudy.6 mph52%30.22 "Hg10 mi
2:51 pm63 °FOvercast.3 mph52%30.22 "Hg10 mi
1:51 pm63 °FOvercast.5 mph63%30.24 "Hg10 mi
12:51 pm62 °FOvercast.3 mph75%30.27 "Hg10 mi
11:51 am61 °FOvercast.No wind75%30.30 "Hg10 mi
11:33 am60 °FMore clouds than sun.3 mph78%30.32 "Hg10 mi
10:51 am60 °FMore clouds than sun.No wind78%30.32 "Hg10 mi
9:51 am58 °FMore clouds than sun.5 mph90%30.33 "Hg10 mi
Weather by CustomWeather, © 2017

See weather overviewHow to use our weather pages